Time,TemperatureF,DewpointF,PressureIn,WindDirection,WindDirectionDegrees,WindSpeedMPH,WindSpeedGustMPH,Humidity,HourlyPrecipIn,Conditions,Clouds,dailyrainin,SoftwareType,DateUTC
2013-04-11 01:23:00,44.0,43.0,29.78,ENE,75,6.0,22.0,97,0.02,,,0.24,,2013-04-11 05:23:00,
2013-04-11 01:32:00,44.0,43.0,29.78,East,87,9.0,17.0,97,0.03,,,0.25,,2013-04-11 05:32:00,
2013-04-11 01:42:00,44.0,43.0,29.78,East,87,9.0,17.0,97,0.03,,,0.25,,2013-04-11 05:42:00,
2013-04-11 01:52:00,44.0,43.0,29.77,ENE,63,11.0,24.0,96,0.02,,,0.25,,2013-04-11 05:52:00,
2013-04-11 02:02:00,44.0,43.0,29.77,ENE,68,5.0,10.0,96,0.02,,,0.26,,2013-04-11 06:02:00,
2013-04-11 02:12:00,44.0,43.0,29.77,ENE,68,5.0,10.0,96,0.02,,,0.26,,2013-04-11 06:12:00,
2013-04-11 02:22:00,44.0,43.0,29.78,NE,43,2.0,15.0,96,0.02,,,0.26,,2013-04-11 06:22:00,
2013-04-11 02:32:00,44.0,43.0,29.76,NE,43,2.0,21.0,96,0.03,,,0.28,,2013-04-11 06:32:00,
2013-04-11 02:42:00,44.0,43.0,29.76,NE,43,2.0,21.0,96,0.03,,,0.28,,2013-04-11 06:42:00,
2013-04-11 02:52:00,44.0,43.0,29.78,West,277,1.0,5.0,96,0.03,,,0.28,,2013-04-11 06:52:00,
2013-04-11 03:02:00,44.0,43.0,29.94,South,174,6.0,16.0,97,0.03,,,0.29,,2013-04-11 07:02:00,
2013-04-11 03:12:00,44.0,43.0,29.94,South,174,6.0,16.0,97,0.03,,,0.29,,2013-04-11 07:12:00,
2013-04-11 03:22:00,44.0,43.0,29.88,NE,51,1.0,11.0,95,0.04,,,0.30,,2013-04-11 07:22:00,
2013-04-11 03:32:00,44.0,43.0,29.80,East,84,5.0,7.0,96,0.04,,,0.31,,2013-04-11 07:32:00,
2013-04-11 03:43:00,44.0,43.0,29.80,East,84,5.0,7.0,96,0.04,,,0.31,,2013-04-11 07:43:00,
2013-04-11 03:52:00,43.0,42.0,29.78,ENE,65,1.0,5.0,96,0.05,,,0.32,,2013-04-11 07:52:00,
2013-04-11 04:03:00,43.0,42.0,29.77,East,97,6.0,10.0,96,0.05,,,0.34,,2013-04-11 08:03:00,
2013-04-11 04:12:00,43.0,42.0,29.77,East,97,6.0,10.0,96,0.05,,,0.34,,2013-04-11 08:12:00,
2013-04-11 04:22:00,43.0,42.0,29.78,East,100,6.0,15.0,96,0.05,,,0.34,,2013-04-11 08:22:00,
2013-04-11 04:32:00,44.0,42.0,29.80,East,98,10.0,14.0,94,0.06,,,0.37,,2013-04-11 08:32:00,
2013-04-11 04:42:00,44.0,42.0,29.80,East,98,10.0,14.0,94,0.06,,,0.37,,2013-04-11 08:42:00,
2013-04-11 04:52:00,43.0,41.0,29.78,East,101,8.0,13.0,94,0.05,,,0.37,,2013-04-11 08:52:00,
2013-04-11 05:02:00,43.0,42.0,29.76,NE,44,3.0,13.0,96,0.05,,,0.39,,2013-04-11 09:02:00,
2013-04-11 05:12:00,43.0,42.0,29.76,NE,44,3.0,13.0,96,0.05,,,0.39,,2013-04-11 09:12:00,
2013-04-11 05:22:00,43.0,42.0,29.75,NE,53,3.0,7.0,95,0.05,,,0.40,,2013-04-11 09:22:00,
2013-04-11 05:33:00,43.0,42.0,29.76,ENE,59,2.0,8.0,96,0.06,,,0.41,,2013-04-11 09:33:00,
2013-04-11 05:43:00,43.0,42.0,29.76,ENE,59,2.0,8.0,96,0.06,,,0.41,,2013-04-11 09:43:00,
2013-04-11 05:52:00,43.0,42.0,29.76,ENE,67,2.0,5.0,96,0.07,,,0.44,,2013-04-11 09:52:00,
2013-04-11 06:02:00,43.0,42.0,29.76,East,81,5.0,8.0,96,0.07,,,0.45,,2013-04-11 10:02:00,
2013-04-11 06:13:00,43.0,42.0,29.76,ENE,75,11.0,16.0,95,0.07,,,0.47,,2013-04-11 10:13:00,
2013-04-11 06:23:00,43.0,42.0,29.76,ENE,75,11.0,16.0,95,0.07,,,0.47,,2013-04-11 10:23:00,
2013-04-11 06:32:00,43.0,42.0,29.75,East,83,3.0,21.0,95,0.07,,,0.48,,2013-04-11 10:32:00,
2013-04-11 06:42:00,43.0,42.0,29.75,East,83,3.0,21.0,95,0.07,,,0.48,,2013-04-11 10:42:00,
2013-04-11 06:52:00,43.0,42.0,29.74,East,86,5.0,13.0,96,0.07,,,0.51,,2013-04-11 10:52:00,
2013-04-11 07:03:00,43.0,42.0,29.74,East,86,5.0,13.0,96,0.07,,,0.51,,2013-04-11 11:03:00,
2013-04-11 07:12:00,43.0,42.0,29.75,East,90,9.0,15.0,96,0.07,,,0.52,,2013-04-11 11:12:00,
2013-04-11 07:23:00,43.0,42.0,29.77,ESE,103,9.0,13.0,95,0.07,,,0.54,,2013-04-11 11:23:00,
2013-04-11 07:32:00,43.0,42.0,29.77,ESE,103,9.0,13.0,95,0.07,,,0.54,,2013-04-11 11:32:00,
2013-04-11 07:43:00,43.0,42.0,29.77,ESE,103,9.0,13.0,95,0.07,,,0.54,,2013-04-11 11:43:00,
2013-04-11 07:53:00,43.0,42.0,29.73,East,90,11.0,19.0,95,0.07,,,0.58,,2013-04-11 11:53:00,
2013-04-11 08:02:00,43.0,42.0,29.75,East,88,10.0,16.0,95,0.07,,,0.59,,2013-04-11 12:02:00,
2013-04-11 08:13:00,43.0,42.0,29.75,East,88,10.0,16.0,95,0.07,,,0.59,,2013-04-11 12:13:00,
2013-04-11 08:23:00,43.0,42.0,29.75,East,97,4.0,22.0,96,0.07,,,0.61,,2013-04-11 12:23:00,
2013-04-11 08:32:00,43.0,42.0,29.75,ENE,70,5.0,12.0,96,0.07,,,0.62,,2013-04-11 12:32:00,
2013-04-11 08:43:00,43.0,42.0,29.75,ENE,70,5.0,12.0,96,0.07,,,0.62,,2013-04-11 12:43:00,
2013-04-11 08:52:00,43.0,42.0,29.72,East,85,7.0,19.0,96,0.06,,,0.64,,2013-04-11 12:52:00,
2013-04-11 09:02:00,43.0,42.0,29.72,East,85,7.0,19.0,96,0.06,,,0.64,,2013-04-11 13:02:00,
2013-04-11 09:13:00,43.0,42.0,29.73,East,89,9.0,23.0,95,0.06,,,0.67,,2013-04-11 13:13:00,
2013-04-11 09:23:00,43.0,42.0,29.73,East,89,9.0,23.0,95,0.06,,,0.67,,2013-04-11 13:23:00,
2013-04-11 09:32:00,43.0,42.0,29.75,East,86,11.0,17.0,95,0.06,,,0.69,,2013-04-11 13:32:00,
2013-04-11 09:43:00,43.0,42.0,29.75,East,86,11.0,17.0,95,0.06,,,0.69,,2013-04-11 13:43:00,
2013-04-11 09:54:00,43.0,42.0,29.72,ESE,103,15.0,24.0,95,0.07,,,0.71,,2013-04-11 13:54:00,
2013-04-11 10:03:00,43.0,42.0,29.72,East,87,11.0,18.0,96,0.06,,,0.72,,2013-04-11 14:03:00,
2013-04-11 10:12:00,43.0,42.0,29.72,East,87,11.0,18.0,96,0.06,,,0.72,,2013-04-11 14:12:00,
2013-04-11 10:22:00,43.0,42.0,29.72,ESE,115,11.0,23.0,96,0.06,,,0.73,,2013-04-11 14:22:00,
2013-04-11 10:32:00,43.0,42.0,29.72,East,96,8.0,18.0,96,0.06,,,0.75,,2013-04-11 14:32:00,
2013-04-11 10:42:00,43.0,42.0,29.72,East,96,8.0,18.0,96,0.06,,,0.75,,2013-04-11 14:42:00,
2013-04-11 10:52:00,43.0,42.0,29.71,East,80,10.0,22.0,96,0.04,,,0.75,,2013-04-11 14:52:00,
2013-04-11 11:02:00,43.0,42.0,29.71,ESE,104,15.0,22.0,96,0.04,,,0.77,,2013-04-11 15:02:00,
2013-04-11 11:12:00,43.0,42.0,29.71,ESE,104,15.0,22.0,96,0.04,,,0.77,,2013-04-11 15:12:00,
2013-04-11 11:22:00,43.0,42.0,29.71,East,95,10.0,19.0,96,0.05,,,0.78,,2013-04-11 15:22:00,
2013-04-11 11:32:00,43.0,42.0,29.71,East,84,12.0,22.0,96,0.05,,,0.80,,2013-04-11 15:32:00,
2013-04-11 11:43:00,43.0,42.0,29.71,East,84,12.0,22.0,96,0.05,,,0.80,,2013-04-11 15:43:00,
2013-04-11 11:52:00,43.0,42.0,29.70,ESE,105,13.0,22.0,97,0.06,,,0.81,,2013-04-11 15:52:00,
2013-04-11 12:02:00,43.0,42.0,29.70,East,91,11.0,21.0,97,0.06,,,0.83,,2013-04-11 16:02:00,
2013-04-11 12:13:00,43.0,42.0,29.70,East,91,11.0,21.0,97,0.06,,,0.83,,2013-04-11 16:13:00,
2013-04-11 12:23:00,43.0,42.0,29.71,East,81,9.0,23.0,97,0.04,,,0.83,,2013-04-11 16:23:00,
2013-04-11 12:32:00,43.0,42.0,29.71,East,90,8.0,19.0,97,0.05,,,0.84,,2013-04-11 16:32:00,
2013-04-11 12:42:00,43.0,42.0,29.71,East,90,8.0,19.0,97,0.05,,,0.84,,2013-04-11 16:42:00,
2013-04-11 12:52:00,43.0,42.0,29.70,East,96,14.0,23.0,97,0.04,,,0.85,,2013-04-11 16:52:00,
2013-04-11 13:02:00,43.0,42.0,29.72,East,79,13.0,22.0,97,0.03,,,0.86,,2013-04-11 17:02:00,
2013-04-11 13:13:00,43.0,42.0,29.72,East,79,13.0,22.0,97,0.03,,,0.86,,2013-04-11 17:13:00,
2013-04-11 13:23:00,43.0,42.0,29.71,East,88,12.0,24.0,97,0.03,,,0.86,,2013-04-11 17:23:00,
2013-04-11 13:33:00,43.0,42.0,29.70,East,81,15.0,23.0,97,0.02,,,0.86,,2013-04-11 17:33:00,
2013-04-11 13:43:00,43.0,42.0,29.70,East,81,15.0,23.0,97,0.02,,,0.86,,2013-04-11 17:43:00,
2013-04-11 13:52:00,43.0,42.0,29.69,ESE,111,12.0,21.0,98,0.02,,,0.86,,2013-04-11 17:52:00,
2013-04-11 14:03:00,43.0,42.0,29.67,East,88,15.0,26.0,98,0.03,,,0.88,,2013-04-11 18:03:00,
2013-04-11 14:13:00,43.0,42.0,29.67,East,88,15.0,26.0,98,0.03,,,0.88,,2013-04-11 18:13:00,
2013-04-11 14:23:00,43.0,42.0,29.67,East,88,15.0,26.0,98,0.03,,,0.88,,2013-04-11 18:23:00,
2013-04-11 14:33:00,43.0,42.0,29.65,ESE,114,14.0,21.0,98,0.03,,,0.87,,2013-04-11 18:33:00,
2013-04-11 14:43:00,43.0,42.0,29.65,ESE,114,14.0,21.0,98,0.03,,,0.87,,2013-04-11 18:43:00,
2013-04-11 14:52:00,43.0,42.0,29.65,East,100,12.0,22.0,98,0.04,,,0.88,,2013-04-11 18:52:00,
2013-04-11 15:04:00,43.0,42.0,29.65,ESE,104,13.0,19.0,98,0.02,,,0.88,,2013-04-11 19:04:00,
2013-04-11 15:14:00,43.0,42.0,29.65,ESE,104,13.0,19.0,98,0.02,,,0.88,,2013-04-11 19:14:00,
2013-04-11 15:22:00,43.0,42.0,29.66,ENE,75,14.0,19.0,98,0.03,,,0.89,,2013-04-11 19:22:00,
2013-04-11 15:32:00,43.0,42.0,29.65,ESE,118,11.0,17.0,98,0.03,,,0.87,,2013-04-11 19:32:00,
2013-04-11 15:43:00,43.0,42.0,29.65,ESE,118,11.0,17.0,98,0.03,,,0.87,,2013-04-11 19:43:00,
2013-04-11 15:52:00,43.0,42.0,29.66,East,83,11.0,23.0,97,0.02,,,0.87,,2013-04-11 19:52:00,
2013-04-11 16:03:00,43.0,42.0,29.66,East,83,11.0,23.0,97,0.02,,,0.87,,2013-04-11 20:03:00,
2013-04-11 16:13:00,43.0,42.0,29.66,East,83,11.0,23.0,97,0.02,,,0.87,,2013-04-11 20:13:00,
2013-04-11 16:22:00,43.0,42.0,29.65,East,90,11.0,17.0,97,0.02,,,0.88,,2013-04-11 20:22:00,
2013-04-11 16:33:00,43.0,42.0,29.64,East,93,13.0,22.0,98,0.01,,,0.86,,2013-04-11 20:33:00,
2013-04-11 16:43:00,43.0,42.0,29.64,East,93,13.0,22.0,98,0.01,,,0.86,,2013-04-11 20:43:00,
2013-04-11 16:53:00,43.0,42.0,29.63,East,94,10.0,21.0,98,0.02,,,0.87,,2013-04-11 20:53:00,
2013-04-11 17:03:00,43.0,42.0,29.62,ESE,109,14.0,19.0,98,0.01,,,0.87,,2013-04-11 21:03:00,
2013-04-11 17:12:00,43.0,42.0,29.62,ESE,109,14.0,19.0,98,0.01,,,0.87,,2013-04-11 21:12:00,
2013-04-11 17:22:00,43.0,42.0,29.62,ESE,103,12.0,19.0,98,0.01,,,0.87,,2013-04-11 21:22:00,
2013-04-11 17:33:00,43.0,42.0,29.62,ESE,103,12.0,19.0,98,0.01,,,0.86,,2013-04-11 21:33:00,
2013-04-11 17:43:00,43.0,42.0,29.62,ESE,103,12.0,19.0,98,0.01,,,0.86,,2013-04-11 21:43:00,
2013-04-11 17:53:00,43.0,42.0,29.62,ESE,102,13.0,21.0,98,0.00,,,0.86,,2013-04-11 21:53:00,
2013-04-11 18:03:00,43.0,42.0,29.62,East,96,13.0,18.0,98,0.00,,,0.86,,2013-04-11 22:03:00,
2013-04-11 18:13:00,43.0,42.0,29.62,East,96,13.0,18.0,98,0.00,,,0.86,,2013-04-11 22:13:00,
2013-04-11 18:23:00,43.0,42.0,29.62,East,88,8.0,13.0,98,0.01,,,0.87,,2013-04-11 22:23:00,
2013-04-11 18:33:00,43.0,42.0,29.63,East,88,7.0,12.0,98,0.01,,,0.85,,2013-04-11 22:33:00,
2013-04-11 18:44:00,43.0,42.0,29.63,East,88,7.0,12.0,98,0.01,,,0.85,,2013-04-11 22:44:00,
2013-04-11 18:52:00,43.0,42.0,29.62,East,101,9.0,14.0,98,0.02,,,0.86,,2013-04-11 22:52:00,
2013-04-11 19:03:00,42.0,41.0,29.60,ESE,107,10.0,15.0,98,0.02,,,0.86,,2013-04-11 23:03:00,
2013-04-11 19:13:00,42.0,41.0,29.60,ESE,107,10.0,15.0,98,0.02,,,0.86,,2013-04-11 23:13:00,
2013-04-11 19:23:00,42.0,41.0,29.59,ENE,67,13.0,17.0,98,0.02,,,0.87,,2013-04-11 23:23:00,
2013-04-11 19:33:00,42.0,41.0,29.59,ESE,103,11.0,19.0,97,0.02,,,0.86,,2013-04-11 23:33:00,
2013-04-11 19:43:00,42.0,41.0,29.59,ESE,103,11.0,19.0,97,0.02,,,0.86,,2013-04-11 23:43:00,
2013-04-11 19:53:00,42.0,41.0,29.60,East,92,12.0,18.0,97,0.02,,,0.87,,2013-04-11 23:53:00,
2013-04-11 20:02:00,42.0,41.0,29.59,East,84,12.0,16.0,97,0.02,,,0.87,,2013-04-12 00:02:00,
2013-04-11 20:12:00,42.0,41.0,29.59,East,84,12.0,16.0,97,0.02,,,0.87,,2013-04-12 00:12:00,
2013-04-11 20:22:00,41.0,40.0,29.62,East,82,3.0,10.0,97,0.02,,,0.88,,2013-04-12 00:22:00,
2013-04-11 20:32:00,41.0,40.0,29.62,East,79,5.0,8.0,97,0.02,,,0.87,,2013-04-12 00:32:00,
2013-04-11 20:42:00,41.0,40.0,29.62,East,79,5.0,8.0,97,0.02,,,0.87,,2013-04-12 00:42:00,
2013-04-11 20:53:00,41.0,40.0,29.62,East,90,5.0,8.0,97,0.02,,,0.87,,2013-04-12 00:53:00,
2013-04-11 21:02:00,41.0,40.0,29.60,East,96,8.0,11.0,97,0.02,,,0.88,,2013-04-12 01:02:00,
2013-04-11 21:12:00,41.0,40.0,29.60,East,96,8.0,11.0,97,0.02,,,0.88,,2013-04-12 01:12:00,
2013-04-11 21:22:00,41.0,40.0,29.59,East,86,6.0,13.0,97,0.03,,,0.89,,2013-04-12 01:22:00,
2013-04-11 21:32:00,41.0,40.0,29.59,ENE,77,5.0,12.0,97,0.03,,,0.88,,2013-04-12 01:32:00,
2013-04-11 21:42:00,41.0,40.0,29.59,ENE,77,5.0,12.0,97,0.03,,,0.88,,2013-04-12 01:42:00,
2013-04-11 21:52:00,41.0,40.0,29.58,East,79,5.0,14.0,97,0.03,,,0.88,,2013-04-12 01:52:00,
2013-04-11 22:03:00,40.0,39.0,29.58,East,80,4.0,7.0,97,0.03,,,0.89,,2013-04-12 02:03:00,
2013-04-11 22:12:00,40.0,39.0,29.58,East,80,4.0,7.0,97,0.03,,,0.89,,2013-04-12 02:12:00,
2013-04-11 22:22:00,40.0,39.0,29.58,ESE,106,6.0,11.0,97,0.03,,,0.90,,2013-04-12 02:22:00,
2013-04-11 22:32:00,40.0,39.0,29.59,East,84,5.0,10.0,97,0.03,,,0.90,,2013-04-12 02:32:00,
2013-04-11 22:42:00,40.0,39.0,29.59,East,84,5.0,10.0,97,0.03,,,0.90,,2013-04-12 02:42:00,
2013-04-11 22:52:00,40.0,39.0,29.58,ENE,67,3.0,10.0,97,0.03,,,0.90,,2013-04-12 02:52:00,
2013-04-11 23:02:00,40.0,39.0,29.57,East,86,3.0,7.0,97,0.03,,,0.91,,2013-04-12 03:02:00,
2013-04-11 23:12:00,40.0,39.0,29.57,East,86,3.0,7.0,97,0.03,,,0.91,,2013-04-12 03:12:00,
2013-04-11 23:22:00,40.0,39.0,29.58,East,80,2.0,9.0,97,0.03,,,0.92,,2013-04-12 03:22:00,
2013-04-11 23:33:00,40.0,39.0,29.57,East,85,3.0,8.0,98,0.03,,,0.90,,2013-04-12 03:33:00,
2013-04-11 23:43:00,40.0,39.0,29.57,East,85,3.0,8.0,98,0.03,,,0.90,,2013-04-12 03:43:00,
2013-04-11 23:52:00,40.0,39.0,29.57,East,83,2.0,5.0,97,0.03,,,0.91,,2013-04-12 03:52:00,